FENGYUN 1C DEB, 37448

Orbit data source: Space-Track

FENGYUN 1C DEB, 37448 is space debris in SSO originally from a launch on Mon, 10 May 1999 UTC launched from the Taiyaun Space Center, China (TSC). Fengyun 1C debris stems from the Chinese weather satellite Fengyun-1C, which was intentionally destroyed by a Chinese anti-satellite missile in 2007. This event dramatically increased the amount of space debris, with thousands of trackable fragments posing hazards to satellites and human spaceflight. The Fengyun 1C debris cloud has become a focal point in discussions about space sustainability and the need for international regulations to prevent the creation of new debris.

Loading next visibility...
Identifier
37448, 1999-025EHS
Orbit
SSO
Country
Flag of CNCN / PRC
Related business
Manufacturer
Unknown
Mission
Spacecraft
Bus & Motor
Unknown
Mass
Unknown
Launch date (UTC)
1999-05-10 (27 years ago)
Launch vehicle
Unknown
Launch site
Taiyaun Space Center, China (TSC)
Object type
Payload
Rocket body
Debris
Shape & HBR
Unknown shape, 0.1 m
Radar Cross Section
Small (<0.1 m²)

Expand to show TLE details & history
Last TLE update: 12 hours ago

TLE from 12 hours ago
0 FENGYUN 1C DEB
1 37448U 99025EHS 26167.97059682  .00001581  00000-0  95239-3 0  9995
2 37448  99.3058 237.2877 0301545 278.3488  78.3591 13.87997218649586
Epoch: 2026-06-16T23:17Z
TLE epoch observation values (Epoch: 2026-06-16T23:17:39.565Z)
Latitude
-0°
Longitude
-17.36214°
Altitude
900.439 km
Speed
7.421 km/s
True Right ascension
15h 49m 09s
True Declination
0° 00' 00"
Sunlit
Object was in full shadow at epoch
Visualization orbit readout
Latitude
Unknown
Longitude
Unknown
Altitude
Unknown
Speed
Unknown
Apparent Right ascension
Unknown
Apparent Declination
Unknown
Sunlit
N/A
Visualization observer readout
Local Sidereal Time
22:09:04
Azimuth
Unknown
Elevation
Unknown
Doppler factor
Unknown
Orbital elements
Apogee altitude
1,153.345 km
Perigee altitude
712.425 km
Semi-major axis
7,311.022 km
Eccentricity
0.03015
Inclination
99.3058°
RAAN
237.2877°
Arg. of periapsis
278.3488°
True anomaly
81.76739°
Mean anomaly
78.3591°
Eccentric anomaly
80.0609°
Mean motion
3.47197 °/min
Orbital period
103.69 mins
BSTAR
0.00095239
Loading maneuver chart data...
Computing Atmospheric mass density...
Loading historical data...
Loading historical data...
Loading historical data...
Loading historical data...
Loading historical data...
Loading historical data...
Loading historical data...

Documentation

Showing up to 5 results
|